Regional Weather Roundup
Issued by NWS

Home | Current Version | Previous Version | Text Only | Print | Product List | Glossary Off
Versions: 1 2 3 4 5 6 7 8 9 10 11 12 13 14 15 16 17 18 19 20 21 22 23 24 25 26 27 28 29 30 31 32 33 34 35 36 37 38 39 40 41 42 43 44 45 46 47 48 49 50

000
ASUS43 KFSD 161010
RWRSD

WEATHER ROUNDUP FOR SOUTH DAKOTA
NATIONAL WEATHER SERVICE SIOUX FALLS SD
400 AM CST SAT DEC 16 2017

NOTE: "FAIR" INDICATES FEW OR NO CLOUDS BELOW 12,000 FEET WITH NO
SIGNIFICANT WEATHER AND/OR OBSTRUCTIONS TO VISIBILITY.


SDZ001>005-009-010-012>017-161100-
NORTHWEST AND NORTH CENTRAL SOUTH DAKOTA

CITY           SKY/WX    TMP DP  RH WIND       PRES   REMARKS
BUFFALO          N/A     36  31  82 NW18      29.73R
FAITH            N/A     34  23  64 W14       29.74R WCI  25
MOBRIDGE       CLOUDY    36  25  64 NW12      29.68R
$$

SDZ012>016-024>037-041>051-057-063-072>074-161100-
SOUTHWEST AND SOUTH CENTRAL SOUTH DAKOTA

CITY           SKY/WX    TMP DP  RH WIND       PRES   REMARKS
RAPID CTY ARPT CLOUDY    37  17  44 N14       29.77R
PIERRE         MOCLDY    33  24  69 W10       29.71R WCI  25
CUSTER         CLOUDY    35  11  36 N6        29.77R
ELLSWORTH AFB  CLEAR     41  17  38 N14       29.76R
PHILIP         CLOUDY    33  24  69 NW9       29.73R WCI  25
PINE RIDGE     CLOUDY    25  19  78 CALM      29.75R
SPEARFISH      FAIR      37  19  48 W8        29.80R
WINNER         FAIR      34  23  64 W8        29.72R WCI  27
$$

SDZ004>011-016>023-039-040-161100-
NORTHEAST SOUTH DAKOTA

CITY           SKY/WX    TMP DP  RH WIND       PRES   REMARKS
ABERDEEN       CLOUDY    35  28  75 NW8       29.68R WCI  29
WATERTOWN      CLOUDY    32  26  78 NW9       29.63R WCI  24
BROOKINGS      CLOUDY    29  25  85 NW3       29.65R
SISSETON         N/A     37  30  75 NW8       29.64R
$$

SDZ017-020-022-023-036>040-048>070-161100-
SOUTHEAST SOUTH DAKOTA

CITY           SKY/WX    TMP DP  RH WIND       PRES   REMARKS
SIOUX FALLS    PTCLDY    33  27  78 W9        29.66R WCI  25
HURON          PTCLDY    31  25  78 W3        29.68R
CHAMBERLAIN    CLOUDY    33  25  71 CALM      29.71R
MITCHELL       CLOUDY    33  25  72 NW10      29.69R WCI  25
YANKTON        CLOUDY    30  24  78 W7        29.69R WCI  23
$$

ABBREVIATIONS USED IN REMARKS
   TC - TEMPERATURE IN CELSIUS
  WCI - WIND CHILL INDEX
   HX - HEAT INDEX
  VSB - VISIBILITY





USA.gov is the U.S. government's official web portal to all federal, state and local government web resources and services.